Weather History for Fredericksburg, TX

Change the Weather History Date:

Thursday, August 14, 2014

  Actual Average (KSAT) Record (KSAT)
Temperature  
Mean Temperature 78 °F 86 °F  
Max Temperature 95 °F 97 °F 103 °F (1969)
Min Temperature 61 °F 75 °F 63 °F (1967)
Degree Days  
Heating Degree Days 0 0  
Month to date heating degree days 0  
Since 1 June heating degree days 0  
Since 1 July heating degree days 0  
Cooling Degree Days 13 21  
Month to date cooling degree days 294  
Year to date cooling degree days 2054  
Since 1 June cooling degree days 1425  
Growing Degree Days 28 (Base 50)    
Moisture  
Dew Point 56 °F    
Average Humidity 49    
Maximum Humidity 86    
Minimum Humidity 24    
Precipitation  
Precipitation 0.00 in 0.05 in 0.75 in (1984)
Month to date precipitation 0.69  
Year to date precipitation 19.54  
Snow  
Snow 0.00 in - - ()
Month to date snowfall  
Since 1 June snowfall  
Since 1 July snowfall  
Snow Depth -    
Sea Level Pressure  
Sea Level Pressure 30.05 in    
Wind  
Wind Speed 2 mph (ENE)    
Max Wind Speed 12 mph    
Max Gust Speed 23 mph    
Visibility 10 miles    
Events      
T = Trace of Precipitation, MM = Missing Value Source: NWS Daily Summary

Daily Weather History Graph

Daily Weather History Graph

Search for Another Location

Airport:

Trip Planner

Search our weather history database for the weather conditions in past years. The results will help you decide how hot, cold, wet, or windy it might be!

Date:

Astronomy

Aug. 14, 2014 Rise Set
Actual Time 7:02 AM CDT 8:17 PM CDT
Civil Twilight 6:36 AM CDT 8:43 PM CDT
Nautical Twilight 6:06 AM CDT 9:13 PM CDT
Astronomical Twilight 5:35 AM CDT 9:44 PM CDT
Moon 11:07 PM CDT (8/14) 11:17 AM CDT (8/14)
Length of Visible Light 14h 06m
Length of Day
13h 15m
Waning Gibbous, 79% of the Moon is Illuminated
Aug 14
Waning Gibbous
Aug 17
Last Quarter
Aug 25
New
Sep 2
First Quarter
Sep 8
Full

Hourly Weather History & Observations

Time (CDT) Temp. Heat Index Dew Point Humidity Pressure Visibility Wind Dir Wind Speed Gust Speed Precip Events Conditions
12:15 AM 73.4 °F - 59.7 °F 62% 30.09 in 10.0 mi Calm Calm - N/A   Clear
12:35 AM 71.8 °F - 60.6 °F 68% 30.09 in 10.0 mi Calm Calm - N/A   Clear
12:55 AM 70.7 °F - 59.4 °F 67% 30.09 in 10.0 mi Calm Calm - N/A   Clear
1:15 AM 70.3 °F - 58.5 °F 66% 30.09 in 10.0 mi Calm Calm - N/A   Clear
1:35 AM 69.4 °F - 58.8 °F 69% 30.09 in 10.0 mi Calm Calm - N/A   Clear
1:55 AM 68.5 °F - 59.0 °F 72% 30.09 in 10.0 mi Calm Calm - N/A   Clear
2:15 AM 68.9 °F - 58.8 °F 70% 30.08 in 10.0 mi Calm Calm - N/A   Clear
2:35 AM 67.3 °F - 58.8 °F 74% 30.08 in 10.0 mi WNW 3.5 mph - N/A   Clear
2:55 AM 67.6 °F - 59.2 °F 74% 30.08 in 10.0 mi Calm Calm - N/A   Clear
3:15 AM 67.1 °F - 59.2 °F 76% 30.08 in 10.0 mi Calm Calm - N/A   Clear
3:35 AM 66.2 °F - 58.1 °F 75% 30.08 in 10.0 mi North 4.6 mph - N/A   Clear
3:55 AM 65.5 °F - 58.1 °F 77% 30.08 in 10.0 mi WNW 3.5 mph - N/A   Clear
4:15 AM 66.2 °F - 58.5 °F 76% 30.08 in 10.0 mi Calm Calm - N/A   Clear
4:35 AM 65.3 °F - 58.5 °F 78% 30.08 in 10.0 mi Calm Calm - N/A   Clear
4:55 AM 65.1 °F - 58.8 °F 80% 30.08 in 10.0 mi Calm Calm - N/A   Clear
5:15 AM 62.6 °F - 57.7 °F 84% 30.08 in 10.0 mi NNW 3.5 mph - N/A   Clear
5:35 AM 62.4 °F - 57.4 °F 84% 30.07 in 10.0 mi NW 3.5 mph - N/A   Clear
5:55 AM 63.5 °F - 57.6 °F 81% 30.07 in 10.0 mi Calm Calm - N/A   Clear
6:15 AM 62.6 °F - 58.3 °F 86% 30.07 in 10.0 mi Calm Calm - N/A   Clear
6:35 AM 61.9 °F - 57.6 °F 86% 30.07 in 10.0 mi Calm Calm - N/A   Clear
6:55 AM 62.6 °F - 57.4 °F 83% 30.08 in 10.0 mi Calm Calm - N/A   Clear
7:15 AM 62.4 °F - 57.2 °F 83% 30.09 in 10.0 mi Calm Calm - N/A   Clear
7:35 AM 62.8 °F - 57.7 °F 84% 30.09 in 10.0 mi Calm Calm - N/A   Clear
7:55 AM 64.0 °F - 57.4 °F 79% 30.09 in 10.0 mi NW 3.5 mph - N/A   Clear
8:15 AM 66.0 °F - 57.6 °F 74% 30.10 in 10.0 mi Calm Calm - N/A   Clear
8:35 AM 68.9 °F - 57.7 °F 68% 30.10 in 10.0 mi Calm Calm - N/A   Clear
8:55 AM 71.1 °F - 59.0 °F 66% 30.10 in 10.0 mi Calm Calm - N/A   Clear
9:15 AM 74.1 °F - 58.5 °F 58% 30.10 in 10.0 mi Calm Calm - N/A   Clear
9:35 AM 77.0 °F - 57.9 °F 52% 30.10 in 10.0 mi Calm Calm - N/A   Clear
9:55 AM 79.7 °F - 57.2 °F 46% 30.10 in 10.0 mi Calm Calm - N/A   Clear
10:15 AM 82.2 °F 81.8 °F 56.5 °F 41% 30.10 in 10.0 mi Calm Calm - N/A   Clear
10:35 AM 84.4 °F 83.2 °F 55.4 °F 37% 30.10 in 10.0 mi SW 3.5 mph - N/A   Clear
10:55 AM 85.8 °F 84.3 °F 55.6 °F 35% 30.10 in 10.0 mi SW 4.6 mph - N/A   Clear
11:15 AM 86.2 °F 84.5 °F 54.5 °F 34% 30.10 in 10.0 mi Calm Calm - N/A   Clear
11:35 AM 87.4 °F 85.5 °F 54.0 °F 32% 30.10 in 10.0 mi Calm Calm - N/A   Clear
11:55 AM 89.4 °F 87.3 °F 54.0 °F 30% 30.09 in 10.0 mi ENE 4.6 mph - N/A   Clear
12:15 PM 90.3 °F 88.1 °F 53.6 °F 29% 30.09 in 10.0 mi NE 5.8 mph - N/A   Clear
12:35 PM 90.0 °F 87.7 °F 53.4 °F 29% 30.08 in 10.0 mi SE 3.5 mph - N/A   Clear
12:55 PM 90.5 °F 88.3 °F 53.8 °F 29% 30.07 in 10.0 mi East 5.8 mph - N/A   Clear
1:15 PM 92.3 °F 89.9 °F 53.6 °F 27% 30.06 in 10.0 mi NNE 9.2 mph - N/A   Clear
1:35 PM 92.7 °F 90.4 °F 53.6 °F 27% 30.06 in 10.0 mi NE 4.6 mph 16.1 mph N/A   Clear
1:55 PM 92.5 °F 90.2 °F 53.4 °F 27% 30.05 in 10.0 mi North 5.8 mph - N/A   Clear
2:15 PM 92.8 °F 90.4 °F 53.6 °F 26% 30.04 in 10.0 mi NNE 6.9 mph - N/A   Clear
2:35 PM 94.1 °F 91.6 °F 53.1 °F 25% 30.04 in 10.0 mi Calm Calm - N/A   Clear
2:55 PM 95.0 °F - 52.9 °F 24% 30.03 in 10.0 mi NE 10.4 mph - N/A   Clear
3:15 PM 94.8 °F - 52.5 °F 24% 30.03 in 10.0 mi NE 9.2 mph 18.4 mph N/A   Clear
3:35 PM 94.5 °F 92.3 °F 54.3 °F 26% 30.02 in 10.0 mi East 9.2 mph 23.0 mph N/A   Clear
3:55 PM 93.9 °F - 52.9 °F 25% 30.02 in 10.0 mi SE 4.6 mph - N/A   Clear
4:15 PM 94.1 °F - 52.2 °F 24% 30.01 in 10.0 mi NE 3.5 mph - N/A   Clear
4:35 PM 94.1 °F - 52.3 °F 24% 30.00 in 10.0 mi East 5.8 mph - N/A   Clear
4:55 PM 94.3 °F - 52.7 °F 24% 30.00 in 10.0 mi ENE 5.8 mph - N/A   Clear
5:15 PM 93.7 °F - 52.3 °F 24% 29.99 in 10.0 mi SE 6.9 mph - N/A   Clear
5:35 PM 94.6 °F 92.0 °F 53.1 °F 24% 29.99 in 10.0 mi Calm Calm - N/A   Clear
5:55 PM 94.1 °F 91.6 °F 53.4 °F 25% 29.98 in 10.0 mi NE 8.1 mph - N/A   Clear
6:15 PM 94.5 °F 92.1 °F 53.1 °F 25% 29.98 in 10.0 mi East 5.8 mph - N/A   Clear
6:35 PM 93.4 °F 91.0 °F 53.4 °F 26% 29.98 in 10.0 mi ENE 11.5 mph - N/A   Clear
6:55 PM 93.0 °F 90.6 °F 53.6 °F 26% 29.97 in 10.0 mi East 6.9 mph - N/A   Scattered Clouds
7:15 PM 91.8 °F 89.3 °F 53.4 °F 27% 29.97 in 10.0 mi East 6.9 mph - N/A   Scattered Clouds
7:35 PM 90.7 °F - 52.9 °F 28% 29.98 in 10.0 mi East 5.8 mph - N/A   Clear
7:55 PM 89.6 °F - 52.7 °F 28% 29.98 in 10.0 mi East 6.9 mph - N/A   Clear
8:15 PM 88.0 °F 85.7 °F 53.1 °F 30% 29.99 in 10.0 mi East 4.6 mph - N/A   Clear
8:35 PM 86.7 °F 84.7 °F 53.6 °F 32% 29.99 in 10.0 mi East 4.6 mph - N/A   Clear
8:55 PM 85.6 °F 84.0 °F 54.0 °F 34% 29.99 in 10.0 mi East 3.5 mph - N/A   Clear
9:15 PM 83.3 °F 82.2 °F 54.5 °F 37% 30.00 in 10.0 mi Calm Calm - N/A   Clear
9:35 PM 82.8 °F 81.9 °F 54.9 °F 38% 30.01 in 10.0 mi Calm Calm - N/A   Clear
9:55 PM 81.5 °F 81.1 °F 55.4 °F 41% 30.01 in 10.0 mi Calm Calm - N/A   Clear
10:15 PM 80.1 °F 80.2 °F 55.8 °F 43% 30.02 in 10.0 mi Calm Calm - N/A   Clear
10:35 PM 78.1 °F - 56.5 °F 47% 30.02 in 10.0 mi Calm Calm - N/A   Clear
10:55 PM 78.1 °F - 56.3 °F 47% 30.03 in 10.0 mi Calm Calm - N/A   Clear
11:15 PM 77.5 °F - 56.7 °F 48% 30.03 in 10.0 mi Calm Calm - N/A   Clear
11:35 PM 76.5 °F - 56.5 °F 50% 30.02 in 10.0 mi Calm Calm - N/A   Clear
11:55 PM 74.7 °F - 56.3 °F 53% 30.02 in 10.0 mi Calm Calm - N/A   Clear